Погода в Саскылахе

Погода в Саскылахе : погода сейчас, прогноз погоды и архив. Всё, что Вы хотите узнать о погоде в Саскылахе!

Хотите узнать прогноз погоды в Саскылахе? Тогда Вам сюда: Погода в Саскылахе

Поиск расширенной информации на нашем сайте:

Другие новости

Новости СМИ2

Главная страница сайта

Новости сайта

02.10.2013

Напоминаем, что на нашем новом сайте вы можете получить высокодетализированные прогнозы погоды по пунктам России, СНГ и мира (включающие важные для авиации метеовеличины, такие как направление и скорость ветра, видимость, явления погоды, количество и форма облачности, нижняя и верхняя граница облачности), а также ознакомиться с разнообразными материалами по авиационной метеорологии и подборкой полезных ссылок на эту тему.

Сайт Метеоцентр.Азия посвящён разработке технологий оптимизации авиаметеорологического обслуживания, включая проектирование и перспективное создание нескольких автоматизированных авиаметеорологических систем:
- система выпуска высокодетальных прогностических карт явлений погоды для нижнего воздушного пространства по России и ближнему зарубежью;
- система верификации прогнозов TAF (выпускаемых синоптиками официальных АМСГ РФ и ближнего зарубежья) и AUTOTAF (выпускаемых сайтом Метеоцентр.Азия) - выявление ошибок, онлайн-сопоставление с фактической погодой METAR, автоматическое внесение коррективов в прогнозы при резком отклонении фактической погоды от прогноза, подсчёт оправдываемости прогнозов по элементам и в целом;
- система обработки, анализа и отображения авиаметеорологической информации для применения провайдерами метеорологической информации.

Рекомендуем: разместить услугу

Погода в Саскылахе - сегодня

Время (UTC), дата Ветер
(°,м/с) 
Видим.   Явления Облачность Т
(°С)
Тd
(°С)
f(%) Тe
(°С)
Pmin
(гПа)
dP
(гПа)
Po
(мм)
O2
(г/м3)
Тmin Tmax R s Состояние
почвы
18 25.05.17 330 (СЗ) 20000 м    10/10 270 м 
[St]
-6.2 -6.6 97 -9  1007.5  -0.2  754  312           
21 25.05.17 330 (СЗ) 20000 м    10/10 270 м 
[St]
-6.1 -6.6 96 -8  1007.5  754  311           
00 26.05.17 320 (СЗ) 1000 м  дымка{туман}  10/10 100 м 
[St]
-5.3 -6 95 -9  1005.4  -2.1  752  310  -6.3      20  неравномерный
мокрый или
старый снег
100% 
03 26.05.17 320 (СЗ) 1000 м  дымка  10/10 120 м 
[St]
-3.3 -4 95 -6  1004.4  -1  752  307           
06 26.05.17 360 (С) 20000 м    10/10 300 м 
[St]
-2.8 -4.1 91 -4  1004.4  -1  752  306           
09 26.05.17 320 (СЗ) 20000 м    10/10 300 м 
[St]
-1.9 -4 86 -3  1004.4  752  305           
12 26.05.17 330 (СЗ) 4000 м  слаб. снег  10/10 300 м 
[Sc]
-2 -2.8 94 -3  1004.4  752  305    -1.9  0.0     
21 26.05.17 010 (С) 20000 м    10/10 1110 м 
[Sc]
-1.7 -2.8 92 -3  1004  0.7  751  305           
09 27.05.17 010 (С) 20000 м    10/10 270 м 
[St]
+0.9 -1.1 86 -1  1008.6  2.3  755  303           
12 27.05.17 010 (С) н/о    н/о 
+0.1 -1.8 87 -2  1009.3  755  305           
15 27.05.17 330 (СЗ) 20000 м    10/10 400 м 
[Sc]
-1.1 -2.5 90 -4  1009.6  755  306           
18 27.05.17 340 (С) 20000 м    10/10 400 м 
[Sc]
-2.5 -3.3 94 -5  1010.2  0.6  756  308           
21 27.05.17 330 (СЗ) 20000 м    10/10 630 м 
[Sc]
-3.1 -4.4 91 -7  1012.4  2.1  758  309           
03 28.05.17 320 (СЗ) 20000 м    10/10 400 м 
[Sc]
-2.4 -3.9 89 -6  1015.4  760  309           
06 28.05.17 330 (СЗ) 20000 м    10/10 450 м 
[Sc]
-2.3 -3.8 89 -6  1015.4  760  309           
09 28.05.17 320 (СЗ) 20000 м    10/10 270 м 
[St]
-2.3 -2.8 96 -5  1016.4  761  309           
12 28.05.17 320 (СЗ) 20000 м    10/10 500 м 
[Sc]
-2.7 -4 91 -6  1016.4  761  310    -2.3       
15 28.05.17 340 (С) 20000 м    10/10 420 м 
[Sc]
-3.5 -3.9 97 -6  1017.9  0.5  762  311           
18 28.05.17 340 (С) 20000 м    10/10 570 м 
[Sc]
-4 -4.8 94 -7  1018.4  0.5  762  312           
21 28.05.17 330 (СЗ) 4000 м  дымка  10/10 270 м 
[St]
-4.3 -5.2 93 -7  1019.5  1.1  763  313           
03 29.05.17 340 (С) 20000 м    8/8 480 м 
[Sc]
-3.7 -6.4 81 -5  1019.7  763  312           
06 29.05.17 330 (СЗ) 20000 м    10/10 360 м 
[Sc]
-3.8 -7.1 78 -7  1019.7  763  313           
09 29.05.17 320 (СЗ) 20000 м    10/10 420 м 
[Sc]
-4.4 -7.1 81 -8  1019.7  763  313           
12 29.05.17 360 (С) н/о    н/о 
-4.3 -5.9 89 -7  1018.9  -0.3  763  313    -3.1       
15 29.05.17 310 (СЗ) 20000 м    10/10 420 м 
[Sc]
-5.2 -6.8 88 -5  1019.7  763  314           
Время (UTC), дата Ветер
(°,м/с) 
Видим.   Явления Облачность Т
(°С)
Тd
(°С)
f(%) Тe
(°С)
Pmin
(гПа)
dP
(гПа)
Po
(мм)
O2
(г/м3)
Тmin Tmax R s Состояние
почвы

Для получения пояснительной информации подведите курсор к названию столбца.

ПОГОДА в Саскылахе - архив

Всё, что Вы хотите узнать о погоде в Саскылахе - удобно и подробно!

Выберите нужную дату (начиная с 1 января 2015* года) и нажмите кнопку "Найти".
Будут отображены архивные сводки погоды по пункту Саскылах, начиная с указанной даты.


Отображать данные в формате CSV (для использования в таблицах Excel)


Внимание! Наш архив погоды предназначен исключительно для личного некоммерческого использования в познавательных целях. Если Вам необходимы официальные справки о состоянии погоды (для производственных, юридических, коммерческих и т.п. целей), обращайтесь в органы Росгидромета.

*Примечание: данная дата относится к архиву по метеостанциям СССР (Россия, СНГ, Балтия).
Архив по метеостанциям Зарубежной Европы и Азии (кроме Китая) хранится 10 дней, по другим регионам земного шара (Китай, Африка, Америка, Австралия, Океания) - 1 день.

Саскылах - район местоположения метеостанции


Название, широта, долгота, высота метеостанции:
Саскылах 72°ш. 114.1°д. 18 м над ур. моря [Российская Федерация]

Дополнительная информация

В oтличие oт бoльшинства пoгoдных сайтoв мы публикуем пoдрoбную метеoинфoрмацию в детальнoм прoфессиoнальнoм фoрмате.

Характеристики температуры и влажнoсти вoздуха измеряются на высoте 2 м в тени вдали oт зданий и деревьев.
Скoрoсть ветра измеряется на высoте 10 м (на урoвне рoста челoвека скoрoсть ветра ниже в 1.5-2 раза). Если метеoстанция нахoдится в гoрoде или в лесу, тo скoрoсть ветра занижена на 2-4 м/с пo сравнению с oткрытым местoм. Скoрoсть ветра над акватoриями крупных рек и oзёр, а также на вершинах хoлмoв на 2-5 м/с выше, чем в oбычных услoвиях.
Атмoсфернoе давление в разных тoчках местнoсти мoжет значительнo oтличаться oт давления на метеoстанции, в зависимoсти oт услoвий рельефа (при пoдъёме на 10 м давление пoнижается примернo на 1 мм рт.ст.).